Boise, ID

2:32 AM MDT on May 23, 2017 (GMT -0600)
Boise Air Term

Weather History for KBOI - January, 2013

Change the Weather History Date:

Saturday, January 26, 2013

  Actual Average Record
Temperature  
Mean Temperature 36 °F 32 °F  
Max Temperature 39 °F 39 °F 57 °F (1896)
Min Temperature 32 °F 26 °F -8 °F (1957)
Degree Days  
Heating Degree Days 29 33  
Month to date heating degree days 1244 886  
Since 1 July heating degree days 3119 3201  
Cooling Degree Days 0 0  
Month to date cooling degree days 0 0  
Year to date cooling degree days 0 0  
Moisture  
Dew Point 33 °F    
Average Humidity 93    
Maximum Humidity 100    
Minimum Humidity 85    
Precipitation  
Precipitation 0.15 in 0.03 in 0.40 in (1970)
Month to date precipitation 0.86 1.07  
Year to date precipitation 0.86 1.07  
Snow  
Snow T in 0.10 in 1.70 in (1923)
Month to date snowfall 5.3 4.4  
Since 1 July snowfall 7.8 14.1  
Snow Depth 2.00 in    
Sea Level Pressure  
Sea Level Pressure 29.92 in    
Wind  
Wind Speed 4 mph (NW)    
Max Wind Speed 14 mph    
Max Gust Speed 16 mph    
Visibility 1 miles    
Events Fog , Rain , Snow    
T = Trace of Precipitation, MM = Missing Value Source: NWS Daily Summary

Daily Weather History Graph

Daily Weather History Graph

Search for Another Location

Airport or City:

Trip Planner

Search our weather history database for the weather conditions in past years. The results will help you decide how hot, cold, wet, or windy it might be!

Date:

Astronomy

Jan. 26, 2013 Rise Set
Actual Time 8:06 AM MST 5:48 PM MST
Civil Twilight 7:36 AM MST 6:19 PM MST
Nautical Twilight 7:01 AM MST 6:54 PM MST
Astronomical Twilight 6:27 AM MST 7:28 PM MST
Moon 5:49 PM MST (1/26) 7:26 AM MST (1/26)
Length of Visible Light 10h 43m
Length of Day
9h 41m
Full, 100% of the Moon is Illuminated
Jan 26
Full
Jan 26
Full
Feb 3
Last Quarter
Feb 10
New
Feb 17
First Quarter

Hourly Weather History & Observations

Time (MST) Temp. Windchill Dew Point Humidity Pressure Visibility Wind Dir Wind Speed Gust Speed Precip Events Conditions
12:12 AM 32.0 °F - 32.0 °F 100% 30.03 in 0.2 mi Calm Calm - N/A Fog Fog
12:42 AM 33.8 °F 29.6 °F 32.0 °F 93% 30.01 in 0.5 mi SE 4.6 mph - N/A Fog Fog
12:49 AM 33.8 °F - 32.0 °F 93% 30.01 in 0.8 mi Calm Calm - N/A   Overcast
12:53 AM 33.1 °F - 33.1 °F 100% 30.05 in 0.8 mi Calm Calm - N/A   Overcast
1:37 AM 32.0 °F 28.7 °F 32.0 °F 100% 30.00 in 0.5 mi NW 3.5 mph - N/A Fog Fog
1:53 AM 32.0 °F - 32.0 °F 100% 30.05 in 0.5 mi Calm Calm - N/A Fog Fog
2:22 AM 33.8 °F 28.6 °F 32.0 °F 93% 29.98 in 0.5 mi ENE 5.8 mph - N/A Fog Fog
2:31 AM 33.8 °F 28.6 °F 32.0 °F 93% 29.98 in 0.5 mi ENE 5.8 mph - N/A Fog Fog
2:53 AM 33.1 °F - 32.0 °F 96% 30.02 in 0.8 mi Calm Calm - N/A   Mist
3:08 AM 32.0 °F - 30.2 °F 93% 29.97 in 0.8 mi Calm Calm - N/A   Mostly Cloudy
3:36 AM 32.0 °F 24.8 °F 30.2 °F 93% 29.96 in 0.5 mi NW 8.1 mph - N/A Fog Fog
3:53 AM 32.0 °F - 32.0 °F 100% 30.00 in 0.5 mi Calm Calm - N/A Fog Fog
4:16 AM 32.0 °F - 32.0 °F 100% 29.94 in 0.5 mi Calm Calm - 0.00 in Fog Fog
4:30 AM 32.0 °F 28.7 °F 32.0 °F 100% 29.94 in 0.8 mi NW 3.5 mph - 0.00 in   Overcast
4:53 AM 32.0 °F 28.7 °F 32.0 °F 100% 29.98 in 0.8 mi NW 3.5 mph - 0.00 in   Overcast
5:08 AM 32.0 °F 28.7 °F 32.0 °F 100% 29.93 in 0.5 mi North 3.5 mph - N/A Fog Fog
5:53 AM 32.0 °F - 32.0 °F 100% 29.99 in 0.5 mi Calm Calm - 0.03 in Fog Fog
6:24 AM 33.8 °F 25.8 °F 33.8 °F 100% 29.92 in 0.5 mi ENE 10.4 mph - 0.03 in Fog Fog
6:35 AM 33.8 °F 27.7 °F 33.8 °F 100% 29.91 in 0.8 mi East 6.9 mph - 0.03 in   Overcast
6:51 AM 33.8 °F 28.6 °F 33.8 °F 100% 29.90 in 1.0 mi SE 5.8 mph - 0.03 in   Mostly Cloudy
6:53 AM 34.0 °F 28.8 °F 33.1 °F 96% 29.94 in 1.0 mi SE 5.8 mph - 0.03 in   Mostly Cloudy
7:10 AM 35.6 °F 29.2 °F 33.8 °F 93% 29.89 in 2.0 mi SE 8.1 mph - N/A   Mostly Cloudy
7:22 AM 37.4 °F 30.3 °F 35.6 °F 93% 29.89 in 5.0 mi ESE 10.4 mph - N/A   Overcast
7:53 AM 39.0 °F 35.7 °F 36.0 °F 89% 29.92 in 10.0 mi ESE 4.6 mph - N/A   Scattered Clouds
8:53 AM 34.0 °F 28.0 °F 33.1 °F 96% 29.94 in 0.8 mi NE 6.9 mph - N/A   Mostly Cloudy
9:03 AM 33.8 °F 29.6 °F 32.0 °F 93% 29.89 in 0.2 mi NNE 4.6 mph - N/A Fog Fog
9:24 AM 32.0 °F 28.7 °F 32.0 °F 100% 29.88 in 0.2 mi WNW 3.5 mph - N/A Fog Fog
9:53 AM 32.0 °F 28.7 °F 32.0 °F 100% 29.93 in 0.2 mi WSW 3.5 mph - N/A Fog Fog
10:32 AM 33.8 °F - 33.8 °F 100% 29.89 in 0.2 mi Calm Calm - N/A Fog Fog
10:53 AM 33.1 °F 30.0 °F 33.1 °F 100% 29.94 in 0.2 mi North 3.5 mph - N/A Fog Fog
11:02 AM 33.8 °F - 33.8 °F 100% 29.89 in 0.2 mi Calm Calm - N/A Fog Fog
11:10 AM 33.8 °F 29.6 °F 33.8 °F 100% 29.89 in 0.2 mi North 4.6 mph - N/A Fog Fog
11:22 AM 35.6 °F 32.8 °F 35.6 °F 100% 29.88 in 0.5 mi ENE 3.5 mph - N/A Fog Fog
11:35 AM 35.6 °F - 35.6 °F 100% 29.88 in 1.0 mi Calm Calm - 0.00 in Rain Light Rain
11:53 AM 37.0 °F - 36.0 °F 96% 29.91 in 0.8 mi Calm Calm - 0.00 in   Overcast
12:04 PM 37.4 °F - 35.6 °F 93% 29.86 in 1.0 mi Calm Calm - N/A   Overcast
12:30 PM 37.4 °F 29.8 °F 37.4 °F 100% 29.86 in 1.8 mi WNW 11.5 mph - N/A   Overcast
12:40 PM 35.6 °F 27.1 °F 35.6 °F 100% 29.86 in 0.8 mi WNW 12.7 mph - N/A   Overcast
12:46 PM 35.6 °F 28.0 °F 33.8 °F 93% 29.86 in 0.2 mi NW 10.4 mph - N/A Fog Fog
12:53 PM 34.0 °F 25.5 °F 33.1 °F 96% 29.90 in 0.2 mi NW 11.5 mph - N/A Fog Fog
1:07 PM 33.8 °F 25.3 °F 33.8 °F 100% 29.86 in 0.2 mi NW 11.5 mph - N/A Fog Fog
1:53 PM 34.0 °F 28.0 °F 34.0 °F 100% 29.90 in 0.2 mi NNW 6.9 mph - 0.00 in Fog , Rain Light Rain
2:02 PM 33.8 °F 29.6 °F 33.8 °F 100% 29.85 in 0.2 mi NNW 4.6 mph - 0.00 in Fog , Rain Light Rain
2:13 PM 33.8 °F 27.0 °F 33.8 °F 100% 29.85 in 0.5 mi North 8.1 mph - 0.00 in Fog Fog
2:53 PM 34.0 °F 31.0 °F 34.0 °F 100% 29.89 in 1.0 mi NW 3.5 mph - 0.00 in   Overcast
3:31 PM 35.6 °F 30.7 °F 33.8 °F 93% 29.84 in 1.5 mi West 5.8 mph - N/A   Overcast
3:44 PM 35.6 °F 29.2 °F 33.8 °F 93% 29.84 in 1.2 mi West 8.1 mph - 0.00 in Rain Light Rain
3:53 PM 34.0 °F 26.6 °F 34.0 °F 100% 29.89 in 0.8 mi West 9.2 mph - 0.00 in Rain Light Rain
4:23 PM 33.8 °F 27.0 °F 33.8 °F 100% 29.86 in 0.2 mi West 8.1 mph - 0.02 in Fog , Snow Light Snow
4:53 PM 33.1 °F 26.9 °F 33.1 °F 100% 29.91 in 0.2 mi WNW 6.9 mph - 0.02 in Fog , Rain Light Rain
5:53 PM 33.1 °F 25.5 °F 32.0 °F 96% 29.92 in 0.5 mi NW 9.2 mph - 0.05 in Fog , Snow Light Snow
6:53 PM 33.1 °F 27.7 °F 32.0 °F 96% 29.92 in 0.5 mi WNW 5.8 mph - 0.00 in Fog , Rain Light Rain
6:55 PM 33.8 °F 30.8 °F 32.0 °F 93% 29.88 in 0.5 mi WNW 3.5 mph - 0.00 in Fog , Rain Light Rain
7:10 PM 33.8 °F 30.8 °F 33.8 °F 100% 29.87 in 1.2 mi West 3.5 mph - 0.00 in Fog , Rain Light Rain
7:16 PM 33.8 °F 29.6 °F 32.0 °F 93% 29.87 in 1.5 mi West 4.6 mph - 0.00 in Fog , Rain Light Rain
7:53 PM 33.1 °F 26.9 °F 32.0 °F 96% 29.91 in 2.0 mi WNW 6.9 mph - 0.01 in   Overcast
8:02 PM 33.8 °F 29.6 °F 33.8 °F 100% 29.87 in 2.0 mi West 4.6 mph - N/A   Overcast
8:38 PM 33.8 °F 27.7 °F 32.0 °F 93% 29.87 in 4.0 mi WSW 6.9 mph - N/A   Overcast
8:53 PM 33.1 °F - 33.1 °F 100% 29.92 in 4.0 mi Calm Calm - N/A   Overcast
9:22 PM 33.8 °F - 32.0 °F 93% 29.88 in 4.0 mi Calm Calm - N/A   Overcast
9:53 PM 33.1 °F - 33.1 °F 100% 29.95 in 4.0 mi Calm Calm - N/A   Overcast
10:02 PM 33.8 °F - 32.0 °F 93% 29.90 in 4.0 mi Calm Calm - N/A   Overcast
10:30 PM 33.8 °F 29.6 °F 32.0 °F 93% 29.90 in 2.0 mi East 4.6 mph - N/A   Overcast
10:40 PM 33.8 °F 30.8 °F 33.8 °F 100% 29.90 in 1.5 mi East 3.5 mph - N/A   Overcast
10:53 PM 33.1 °F - 33.1 °F 100% 29.95 in 1.5 mi Calm Calm - N/A   Overcast
11:24 PM 33.8 °F - 32.0 °F 93% 29.91 in 2.0 mi Calm Calm - N/A   Overcast
11:33 PM 32.0 °F - 32.0 °F 100% 29.91 in 1.5 mi Calm Calm - N/A   Overcast
11:53 PM 32.0 °F - 32.0 °F 100% 29.95 in 1.5 mi Calm Calm - N/A   Overcast